星链-30226 (STARLINK-30226 )

导读 | 豆包AI

STARLINK-30226是美国太空探索技术公司星链互联网卫星星座的一员,于2023年8月7日在美国发射升空,属于星链项目的补网卫星。它运行在近地轨道,旨在为全球提供高速低延迟的互联网服务,尤其服务偏远地区,也为马斯克推进星链组网、构建全球卫星互联网系统提供支撑,进一步扩大了星链星座的覆盖规模。

基本信息
目录编号:
57497
目录名称:
STARLINK-30226
国际标识:
2023-113C
轨道中心:
EARTH
卫星名称:
星链-30226
卫星全名:
星链-30226 (STARLINK-30226 )
卫星状态:
在轨 (已飞行951 天)
发射日期:
2023-08-07 UTC
国别 :
美国 (US)
星等 :
--
轨道信息
数据来源 国际轨道数据 AOE轨道数据
星历时间 2026-03-15T02:25:35+0800
1天前
查看轨道信息
2026-03-14T17:00:00+0800
1天前
查看轨道信息
半长轴 6863.779km 6863.691km
偏心率 0.000242 0.000156
轨道倾角 43.004° 43.002°
近地点辐角 261.823° 259.422°
升交点赤经 347.244° 349.459°
平近点角 98.235° 99.606°
近地点 483.98km 484.483km
远地点 487.304km 486.625km
周期 94.320分钟 94.318分钟
每日圈数 15.267146 15.267439
详细信息
固有亮度:
5
最大亮度:
0.3
卫星平台:
Starlink v2.0 mini
覆盖范围:
全球
运营商:
太空探索技术公司
运营商所在国:
美国
制造商(研发单位):
太空探索技术公司
制造商所在国:
美国
使用方式:
暂无
卫星简介
星链(Starlink)计划是由太空探索技术公司(SpaceX)提出的一个巨型低轨卫星互联网星座项目,计划在2019年至2024年间在太空搭建由约1.2万颗卫星组成的“星链”网络,其中1584颗将部署在地球上空550千米处的近地轨道,并从2020年开始工作。该卫星仍在工作。
2D轨道图
3D轨道图
轨道高度分析图
轨道倾角分析图
轨道综合分析图
查看轨道综合分析图